FDX1506 KMEM-KGSP

Flight info

Callsign FDX1506
Flight time 0h 58m
Altitude 35000
Route AZONE7 PITEW GOSEY SYI VXV DAJPI RCTOR3
Aircraft B763/H-SDE3FGHIM3RWXY/LB1

Departure

Time 2026-05-07 06:52
Airport Memphis International Airport (KMEM)

Arrival

Time 2026-05-07 07:51
Airport Greenville-Spartanburg International Airport (KGSP)
Time Latitude Longitude Altitude Speed Heading
2026-05-07 06:21 35.06122 -89.97316 264 ft 0 kts 182°
2026-05-07 06:34 35.06132 -89.97316 264 ft 2 kts 182°
2026-05-07 06:34 35.06147 -89.97315 264 ft 2 kts 194°
2026-05-07 06:35 35.06161 -89.97308 263 ft 2 kts 214°
2026-05-07 06:35 35.06173 -89.97296 263 ft 2 kts 230°
2026-05-07 06:35 35.06181 -89.97281 263 ft 2 kts 248°
2026-05-07 06:35 35.06185 -89.97263 263 ft 2 kts 266°
2026-05-07 06:36 35.06185 -89.97255 264 ft 1 kts 274°
2026-05-07 06:36 35.06184 -89.97251 264 ft 0 kts 272°
2026-05-07 06:36 35.06184 -89.97252 263 ft 0 kts 272°
2026-05-07 06:38 35.06185 -89.97264 263 ft 4 kts 272°
2026-05-07 06:39 35.06187 -89.97319 263 ft 8 kts 272°
2026-05-07 06:39 35.06189 -89.97407 263 ft 11 kts 272°
2026-05-07 06:39 35.06191 -89.97446 262 ft 0 kts 271°
2026-05-07 06:40 35.06191 -89.97448 262 ft 1 kts 271°
2026-05-07 06:40 35.06191 -89.97475 262 ft 4 kts 271°
2026-05-07 06:40 35.06184 -89.97514 262 ft 4 kts 236°
2026-05-07 06:40 35.06158 -89.97535 262 ft 4 kts 200°
2026-05-07 06:41 35.06123 -89.97541 263 ft 5 kts 181°
2026-05-07 06:41 35.06083 -89.97541 263 ft 5 kts 180°
2026-05-07 06:41 35.06043 -89.97541 264 ft 5 kts 179°
2026-05-07 06:41 35.06002 -89.97539 265 ft 6 kts 173°
2026-05-07 06:42 35.05987 -89.97536 265 ft 2 kts 169°
2026-05-07 06:42 35.05962 -89.97528 265 ft 4 kts 165°
2026-05-07 06:42 35.05931 -89.97517 266 ft 4 kts 164°
2026-05-07 06:42 35.05893 -89.97504 266 ft 6 kts 163°
2026-05-07 06:43 35.05843 -89.97487 267 ft 8 kts 167°
2026-05-07 06:43 35.05782 -89.97482 268 ft 9 kts 181°
2026-05-07 06:43 35.05713 -89.97485 270 ft 10 kts 181°
2026-05-07 06:43 35.05636 -89.97487 271 ft 11 kts 180°
2026-05-07 06:44 35.05551 -89.97485 273 ft 12 kts 179°
2026-05-07 06:44 35.05459 -89.97485 275 ft 13 kts 180°
2026-05-07 06:44 35.05360 -89.97482 277 ft 14 kts 179°
2026-05-07 06:44 35.05255 -89.97481 279 ft 15 kts 179°
2026-05-07 06:45 35.05145 -89.97478 281 ft 16 kts 178°
2026-05-07 06:45 35.05030 -89.97475 284 ft 16 kts 179°
2026-05-07 06:45 35.04909 -89.97473 286 ft 17 kts 179°
2026-05-07 06:45 35.04781 -89.97469 289 ft 18 kts 178°
2026-05-07 06:46 35.04649 -89.97466 291 ft 19 kts 179°
2026-05-07 06:46 35.04509 -89.97464 293 ft 20 kts 178°
2026-05-07 06:46 35.04365 -89.97456 297 ft 20 kts 180°
2026-05-07 06:46 35.04218 -89.97457 300 ft 21 kts 180°
2026-05-07 06:47 35.04066 -89.97455 303 ft 22 kts 179°
2026-05-07 06:47 35.03912 -89.97452 307 ft 22 kts 179°
2026-05-07 06:47 35.03753 -89.97449 310 ft 23 kts 179°
2026-05-07 06:47 35.03591 -89.97446 313 ft 23 kts 179°
2026-05-07 06:48 35.03422 -89.97441 316 ft 24 kts 179°
2026-05-07 06:48 35.03250 -89.97434 319 ft 25 kts 178°
2026-05-07 06:48 35.03072 -89.97430 322 ft 26 kts 178°
2026-05-07 06:48 35.02887 -89.97430 324 ft 26 kts 179°
2026-05-07 06:49 35.02693 -89.97426 326 ft 28 kts 179°
2026-05-07 06:49 35.02539 -89.97423 328 ft 8 kts 179°
2026-05-07 06:49 35.02517 -89.97423 329 ft 2 kts 179°
2026-05-07 06:49 35.02484 -89.97422 329 ft 6 kts 180°
2026-05-07 06:50 35.02441 -89.97428 330 ft 5 kts 204°
2026-05-07 06:50 35.02421 -89.97461 331 ft 4 kts 256°
2026-05-07 06:50 35.02418 -89.97500 333 ft 5 kts 268°
2026-05-07 06:50 35.02426 -89.97539 334 ft 4 kts 314°
2026-05-07 06:51 35.02468 -89.97553 334 ft 6 kts 358°
2026-05-07 06:51 35.02548 -89.97555 333 ft 26 kts 359°
2026-05-07 06:51 35.02920 -89.97562 327 ft 80 kts 359°
2026-05-07 06:51 35.03645 -89.97577 314 ft 127 kts 359°
2026-05-07 06:52 35.04688 -89.97598 342 ft 165 kts 360°
2026-05-07 06:52 35.05866 -89.97617 803 ft 172 kts 360°
2026-05-07 06:52 35.07028 -89.97644 1538 ft 164 kts
2026-05-07 06:52 35.08117 -89.97205 1938 ft 173 kts 29°
2026-05-07 06:53 35.09177 -89.96427 2493 ft 178 kts 32°
2026-05-07 06:53 35.10270 -89.95631 2876 ft 194 kts 31°
2026-05-07 06:53 35.11518 -89.94739 3206 ft 217 kts 30°
2026-05-07 06:53 35.12864 -89.93763 3691 ft 234 kts 35°
2026-05-07 06:54 35.13977 -89.92189 4140 ft 257 kts 65°
2026-05-07 06:54 35.14290 -89.90009 4825 ft 271 kts 91°
2026-05-07 06:54 35.14173 -89.87705 5554 ft 279 kts 91°
2026-05-07 06:54 35.14097 -89.85306 6272 ft 287 kts 91°
2026-05-07 06:55 35.13853 -89.82845 6945 ft 296 kts 106°
2026-05-07 06:55 35.13258 -89.80417 7656 ft 303 kts 108°
2026-05-07 06:55 35.12657 -89.77921 8342 ft 311 kts 108°
2026-05-07 06:55 35.12035 -89.75350 9004 ft 319 kts 107°
2026-05-07 06:56 35.11626 -89.72636 9610 ft 330 kts 100°
2026-05-07 06:56 35.11298 -89.69878 10319 ft 335 kts 101°
2026-05-07 06:56 35.10945 -89.67000 10730 ft 353 kts 100°
2026-05-07 06:56 35.10574 -89.63928 11110 ft 371 kts 101°
2026-05-07 06:57 35.10188 -89.60740 11474 ft 390 kts 101°
2026-05-07 06:57 35.09787 -89.57406 12224 ft 396 kts 101°
2026-05-07 06:57 35.09386 -89.54076 12934 ft 403 kts 101°
2026-05-07 06:57 35.08972 -89.50664 13634 ft 409 kts 101°
2026-05-07 06:58 35.08485 -89.47233 14280 ft 413 kts 108°
2026-05-07 06:58 35.07708 -89.43881 14920 ft 417 kts 110°
2026-05-07 06:58 35.06933 -89.40430 15440 ft 427 kts 110°
2026-05-07 06:58 35.06135 -89.36903 16175 ft 429 kts 111°
2026-05-07 06:59 35.05328 -89.33336 16709 ft 437 kts 112°
2026-05-07 06:59 35.04511 -89.29736 17144 ft 447 kts 112°
2026-05-07 06:59 35.03677 -89.26045 17869 ft 447 kts 113°
2026-05-07 06:59 35.02853 -89.22391 18318 ft 455 kts 110°
2026-05-07 07:00 35.02396 -89.18507 18794 ft 471 kts 96°
2026-05-07 07:00 35.02429 -89.14489 19362 ft 475 kts 94°
2026-05-07 07:00 35.02452 -89.10412 19782 ft 483 kts 94°
2026-05-07 07:00 35.02495 -89.06307 20408 ft 484 kts 93°
2026-05-07 07:01 35.02539 -89.02139 20832 ft 490 kts 93°
2026-05-07 07:01 35.02583 -88.98010 21369 ft 493 kts 93°
2026-05-07 07:01 35.02626 -88.93785 21796 ft 498 kts 92°
2026-05-07 07:01 35.02668 -88.89587 22277 ft 501 kts 92°
2026-05-07 07:02 35.02708 -88.85262 22745 ft 505 kts 92°
2026-05-07 07:02 35.02749 -88.80947 23169 ft 510 kts 92°
2026-05-07 07:02 35.02788 -88.76624 23723 ft 512 kts 92°
2026-05-07 07:02 35.02825 -88.72295 24190 ft 518 kts 93°
2026-05-07 07:03 35.02859 -88.67866 24812 ft 522 kts 92°
2026-05-07 07:03 35.02895 -88.63429 25319 ft 527 kts 93°
2026-05-07 07:03 35.02925 -88.58931 25857 ft 532 kts 92°
2026-05-07 07:03 35.02958 -88.54357 26301 ft 539 kts 92°
2026-05-07 07:04 35.03026 -88.49795 26884 ft 542 kts 89°
2026-05-07 07:04 35.03502 -88.45190 27276 ft 552 kts 79°
2026-05-07 07:04 35.04510 -88.40659 27840 ft 554 kts 71°
2026-05-07 07:04 35.05735 -88.36144 28172 ft 562 kts 72°
2026-05-07 07:05 35.06959 -88.31619 28692 ft 563 kts 72°
2026-05-07 07:05 35.08197 -88.27036 29071 ft 569 kts 72°
2026-05-07 07:05 35.09440 -88.22457 29496 ft 573 kts 71°
2026-05-07 07:05 35.10693 -88.17814 29941 ft 576 kts 72°
2026-05-07 07:06 35.11957 -88.13132 30259 ft 582 kts 71°
2026-05-07 07:06 35.13237 -88.08391 30676 ft 585 kts 71°
2026-05-07 07:06 35.14510 -88.03660 31132 ft 587 kts 71°
2026-05-07 07:06 35.15782 -87.98926 31400 ft 594 kts 71°
2026-05-07 07:07 35.17085 -87.94064 31837 ft 595 kts 71°
2026-05-07 07:07 35.18366 -87.89287 32140 ft 599 kts 71°
2026-05-07 07:07 35.19672 -87.84399 32599 ft 599 kts 70°
2026-05-07 07:07 35.20961 -87.79573 33053 ft 599 kts 71°
2026-05-07 07:08 35.22243 -87.74756 33524 ft 598 kts 71°
2026-05-07 07:08 35.23533 -87.69905 33954 ft 599 kts 71°
2026-05-07 07:08 35.24816 -87.65072 34421 ft 598 kts 71°
2026-05-07 07:08 35.26101 -87.60218 34918 ft 597 kts 71°
2026-05-07 07:09 35.28651 -87.50557 35022 ft 591 kts 71°
2026-05-07 07:09 35.31162 -87.41022 35008 ft 592 kts 70°
2026-05-07 07:10 35.33699 -87.31356 34991 ft 593 kts 71°
2026-05-07 07:10 35.36219 -87.21711 34987 ft 592 kts 72°
2026-05-07 07:11 35.38720 -87.12094 34994 ft 592 kts 72°
2026-05-07 07:11 35.41231 -87.02417 34998 ft 592 kts 71°
2026-05-07 07:12 35.43721 -86.92780 35009 ft 592 kts 71°
2026-05-07 07:12 35.46196 -86.83170 35010 ft 592 kts 71°
2026-05-07 07:13 35.48672 -86.73511 35016 ft 591 kts 72°
2026-05-07 07:13 35.51139 -86.63863 35015 ft 593 kts 72°
2026-05-07 07:14 35.53592 -86.54227 35018 ft 592 kts 72°
2026-05-07 07:14 35.55968 -86.44514 35019 ft 591 kts 77°
2026-05-07 07:15 35.57520 -86.34597 35022 ft 592 kts 81°
2026-05-07 07:15 35.58988 -86.24644 34998 ft 591 kts 81°
2026-05-07 07:16 35.60419 -86.14732 34996 ft 591 kts 81°
2026-05-07 07:16 35.61844 -86.04783 35001 ft 590 kts 81°
2026-05-07 07:17 35.63261 -85.94815 35008 ft 590 kts 81°
2026-05-07 07:17 35.64661 -85.84885 35008 ft 590 kts 82°
2026-05-07 07:18 35.66056 -85.74948 35007 ft 591 kts 82°
2026-05-07 07:18 35.67444 -85.64985 35000 ft 590 kts 82°
2026-05-07 07:19 35.68818 -85.55070 34999 ft 588 kts 81°
2026-05-07 07:19 35.70190 -85.45091 34998 ft 589 kts 82°
2026-05-07 07:20 35.71551 -85.35147 34999 ft 588 kts 81°
2026-05-07 07:20 35.72905 -85.25188 34980 ft 588 kts 82°
2026-05-07 07:21 35.74251 -85.15221 34975 ft 589 kts 83°
2026-05-07 07:21 35.75581 -85.05315 34979 ft 587 kts 83°
2026-05-07 07:22 35.76910 -84.95342 34984 ft 587 kts 82°
2026-05-07 07:22 35.78228 -84.85400 34982 ft 588 kts 83°
2026-05-07 07:23 35.79528 -84.75495 34982 ft 588 kts 82°
2026-05-07 07:23 35.80835 -84.65507 34988 ft 589 kts 83°
2026-05-07 07:24 35.82126 -84.55572 34984 ft 587 kts 83°
2026-05-07 07:24 35.83412 -84.45583 34984 ft 587 kts 83°
2026-05-07 07:25 35.85323 -84.30656 34956 ft 587 kts 83°
2026-05-07 07:26 35.86566 -84.20860 34962 ft 586 kts 84°
2026-05-07 07:26 35.87820 -84.10886 34968 ft 584 kts 83°
2026-05-07 07:26 35.88432 -84.06014 34958 ft 573 kts 84°
2026-05-07 07:27 35.89036 -84.01190 34956 ft 557 kts 84°
2026-05-07 07:27 35.89621 -83.96475 34459 ft 555 kts 83°
2026-05-07 07:27 35.90063 -83.91754 33916 ft 549 kts 92°
2026-05-07 07:27 35.90010 -83.87090 33401 ft 541 kts 100°
2026-05-07 07:28 35.89682 -83.82428 32754 ft 543 kts 101°
2026-05-07 07:28 35.89305 -83.77786 32137 ft 544 kts 103°
2026-05-07 07:28 35.88900 -83.73178 31518 ft 545 kts 103°
2026-05-07 07:28 35.88472 -83.68553 30885 ft 545 kts 103°
2026-05-07 07:29 35.88034 -83.63895 30229 ft 544 kts 102°
2026-05-07 07:29 35.87587 -83.59204 29598 ft 543 kts 102°
2026-05-07 07:29 35.87146 -83.54620 28981 ft 541 kts 102°
2026-05-07 07:29 35.86699 -83.50010 28376 ft 537 kts 102°
2026-05-07 07:30 35.86251 -83.45425 27766 ft 534 kts 102°
2026-05-07 07:30 35.85813 -83.40939 27183 ft 530 kts 102°
2026-05-07 07:30 35.85367 -83.36432 26589 ft 526 kts 101°
2026-05-07 07:30 35.84930 -83.31978 25981 ft 522 kts 102°
2026-05-07 07:31 35.84537 -83.28033 25426 ft 518 kts 102°
2026-05-07 07:31 35.84098 -83.23622 24801 ft 514 kts 101°
2026-05-07 07:31 35.83680 -83.19418 24210 ft 510 kts 102°
2026-05-07 07:31 35.83251 -83.15153 23630 ft 506 kts 102°
2026-05-07 07:32 35.82814 -83.10828 23046 ft 502 kts 101°
2026-05-07 07:32 35.82390 -83.06602 22471 ft 498 kts 101°
2026-05-07 07:32 35.81959 -83.02377 21874 ft 493 kts 101°
2026-05-07 07:32 35.81537 -82.98201 21291 ft 487 kts 101°
2026-05-07 07:33 35.81113 -82.94055 20720 ft 481 kts 101°
2026-05-07 07:33 35.80699 -82.89996 20139 ft 473 kts 101°
2026-05-07 07:33 35.80287 -82.86015 19643 ft 464 kts 100°
2026-05-07 07:33 35.79884 -82.82092 19121 ft 460 kts 100°
2026-05-07 07:34 35.79482 -82.78194 18567 ft 455 kts 100°
2026-05-07 07:34 35.79081 -82.74365 18032 ft 450 kts 99°
2026-05-07 07:34 35.78649 -82.70515 17516 ft 444 kts 104°
2026-05-07 07:34 35.77738 -82.66955 16999 ft 431 kts 121°
2026-05-07 07:35 35.76231 -82.63896 16511 ft 413 kts 137°
2026-05-07 07:35 35.74260 -82.61408 16048 ft 396 kts 148°
2026-05-07 07:35 35.72144 -82.59242 15603 ft 388 kts 150°
2026-05-07 07:35 35.70042 -82.57246 15145 ft 383 kts 152°
2026-05-07 07:36 35.67898 -82.55297 14683 ft 380 kts 152°
2026-05-07 07:36 35.65780 -82.53419 14236 ft 373 kts 153°
2026-05-07 07:36 35.63654 -82.51562 13798 ft 370 kts 152°
2026-05-07 07:36 35.61553 -82.49741 13351 ft 363 kts 152°
2026-05-07 07:37 35.59496 -82.47971 12921 ft 364 kts 152°
2026-05-07 07:37 35.57400 -82.46170 12489 ft 360 kts 152°
2026-05-07 07:37 35.55368 -82.44424 12066 ft 355 kts 151°
2026-05-07 07:37 35.53333 -82.42683 11673 ft 358 kts 151°
2026-05-07 07:38 35.51285 -82.40928 11340 ft 355 kts 150°
2026-05-07 07:38 35.49157 -82.39429 10757 ft 349 kts 162°
2026-05-07 07:38 35.46932 -82.38292 10354 ft 345 kts 161°
2026-05-07 07:38 35.44746 -82.37124 10150 ft 332 kts 161°
2026-05-07 07:39 35.42658 -82.36025 9920 ft 318 kts 161°
2026-05-07 07:39 35.40704 -82.34996 9787 ft 302 kts 162°
2026-05-07 07:39 35.38771 -82.33981 9687 ft 286 kts 162°
2026-05-07 07:39 35.37032 -82.33073 9491 ft 277 kts 162°
2026-05-07 07:40 35.35598 -82.32320 9441 ft 264 kts 163°
2026-05-07 07:40 35.33937 -82.31452 9294 ft 254 kts 163°
2026-05-07 07:40 35.32458 -82.30683 9033 ft 251 kts 162°
2026-05-07 07:40 35.30852 -82.29846 8668 ft 251 kts 162°
2026-05-07 07:41 35.29232 -82.29003 8264 ft 249 kts 162°
2026-05-07 07:41 35.27657 -82.28181 7931 ft 246 kts 162°
2026-05-07 07:41 35.26085 -82.27354 7654 ft 244 kts 157°
2026-05-07 07:41 35.24671 -82.26166 7429 ft 247 kts 141°
2026-05-07 07:42 35.23495 -82.24603 7217 ft 250 kts 133°
2026-05-07 07:42 35.22391 -82.22971 7068 ft 249 kts 133°
2026-05-07 07:42 35.21261 -82.21307 6525 ft 259 kts 133°
2026-05-07 07:42 35.20081 -82.19568 5923 ft 265 kts 133°
2026-05-07 07:43 35.18906 -82.17841 5428 ft 261 kts 133°
2026-05-07 07:43 35.17776 -82.16164 4797 ft 250 kts 132°
2026-05-07 07:43 35.16694 -82.14570 4168 ft 240 kts 133°
2026-05-07 07:43 35.15649 -82.13019 3531 ft 233 kts 133°
2026-05-07 07:44 35.14648 -82.11526 2981 ft 223 kts 133°
2026-05-07 07:44 35.13620 -82.10278 2996 ft 192 kts 143°
2026-05-07 07:44 35.12608 -82.09267 2928 ft 183 kts 160°
2026-05-07 07:44 35.11406 -82.09023 3045 ft 176 kts 186°
2026-05-07 07:45 35.10120 -82.09071 2991 ft 186 kts 185°
2026-05-07 07:45 35.08854 -82.09119 2963 ft 175 kts 190°
2026-05-07 07:45 35.07652 -82.09377 2964 ft 175 kts 198°
2026-05-07 07:45 35.06486 -82.09826 2991 ft 177 kts 202°
2026-05-07 07:46 35.05333 -82.10392 2965 ft 176 kts 206°
2026-05-07 07:46 35.04213 -82.11031 2971 ft 176 kts 208°
2026-05-07 07:46 35.03120 -82.11704 2978 ft 178 kts 208°
2026-05-07 07:46 35.02005 -82.12396 2976 ft 177 kts 211°
2026-05-07 07:47 35.00964 -82.13187 2978 ft 176 kts 214°
2026-05-07 07:47 34.99943 -82.13987 2961 ft 168 kts 213°
2026-05-07 07:47 34.98990 -82.14708 2847 ft 155 kts 213°
2026-05-07 07:47 34.98111 -82.15378 2665 ft 142 kts 213°
2026-05-07 07:48 34.97275 -82.16016 2451 ft 139 kts 213°
2026-05-07 07:48 34.96452 -82.16644 2276 ft 140 kts 212°
2026-05-07 07:48 34.95618 -82.17280 2099 ft 143 kts 213°
2026-05-07 07:48 34.94770 -82.17928 1905 ft 144 kts 213°
2026-05-07 07:49 34.93909 -82.18554 1728 ft 144 kts 210°
2026-05-07 07:49 34.93041 -82.19196 1493 ft 147 kts 213°
2026-05-07 07:49 34.92172 -82.19902 1282 ft 147 kts 213°
2026-05-07 07:49 34.91317 -82.20544 1122 ft 144 kts 212°
2026-05-07 07:50 34.90467 -82.21199 971 ft 143 kts 211°
2026-05-07 07:50 34.89749 -82.21748 955 ft 102 kts 212°
2026-05-07 07:50 34.89308 -82.22084 949 ft 59 kts 212°
2026-05-07 07:50 34.89021 -82.22305 944 ft 55 kts 212°
2026-05-07 07:51 34.88812 -82.22463 937 ft 16 kts 205°
2026-05-07 07:51 34.88735 -82.22430 936 ft 12 kts 124°
2026-05-07 07:51 34.88702 -82.22347 937 ft 9 kts 89°
2026-05-07 07:51 34.88729 -82.22293 939 ft 6 kts 38°
2026-05-07 07:52 34.88763 -82.22267 940 ft 5 kts 32°
2026-05-07 07:52 34.88795 -82.22242 941 ft 5 kts 33°
2026-05-07 07:52 34.88831 -82.22215 942 ft 6 kts 32°
2026-05-07 07:52 34.88868 -82.22186 943 ft 6 kts 33°
2026-05-07 07:53 34.88914 -82.22151 944 ft 8 kts 32°
2026-05-07 07:53 34.88973 -82.22105 945 ft 11 kts 33°
2026-05-07 07:53 34.89046 -82.22047 946 ft 13 kts 33°
2026-05-07 07:53 34.89135 -82.21980 947 ft 16 kts 32°
2026-05-07 07:54 34.89240 -82.21905 948 ft 18 kts 30°
2026-05-07 07:54 34.89356 -82.21812 949 ft 21 kts 33°
2026-05-07 07:54 34.89490 -82.21709 950 ft 23 kts 32°
2026-05-07 07:54 34.89637 -82.21597 952 ft 25 kts 32°
2026-05-07 07:55 34.89793 -82.21477 955 ft 27 kts 32°
2026-05-07 07:55 34.89957 -82.21351 959 ft 28 kts 32°
2026-05-07 07:55 34.90129 -82.21219 963 ft 29 kts 32°
2026-05-07 07:55 34.90308 -82.21083 967 ft 29 kts 32°
2026-05-07 07:56 34.90476 -82.20955 970 ft 27 kts 32°
2026-05-07 07:56 34.90635 -82.20832 972 ft 26 kts 32°
2026-05-07 07:56 34.90762 -82.20735 973 ft 11 kts 33°
2026-05-07 07:56 34.90807 -82.20670 973 ft 9 kts 82°
2026-05-07 07:57 34.90802 -82.20592 974 ft 8 kts 94°
2026-05-07 07:57 34.90798 -82.20521 974 ft 7 kts 96°
2026-05-07 07:57 34.90778 -82.20466 974 ft 6 kts 123°
2026-05-07 07:57 34.90761 -82.20435 975 ft 0 kts 131°
2026-05-07 07:58 34.90760 -82.20434 975 ft 0 kts 141°
2026-05-07 07:58 34.90757 -82.20432 975 ft 1 kts 147°
2026-05-07 07:58 34.90741 -82.20435 975 ft 4 kts 197°
2026-05-07 07:58 34.90717 -82.20446 974 ft 2 kts 202°
2026-05-07 07:59 34.90710 -82.20449 974 ft 2 kts 206°
2026-05-07 07:59 34.90705 -82.20454 974 ft 0 kts 212°